Change the Weather History Date:

Sunday, March 30, 2014

  Actual Average (KP67) Record (KP67)
Temperature  
Mean Temperature 42 °F -  
Max Temperature 57 °F 40 °F 48 °F (1998)
Min Temperature 28 °F 27 °F 27 °F (1997)
Degree Days  
Heating Degree Days 22    
Moisture  
Dew Point 33 °F    
Average Humidity 77    
Maximum Humidity 100    
Minimum Humidity 44    
Precipitation  
Precipitation 0.00 in - - ()
Sea Level Pressure  
Sea Level Pressure 29.78 in    
Wind  
Wind Speed 10 mph (NNE)    
Max Wind Speed 25 mph    
Max Gust Speed 32 mph    
Visibility 10 miles    
Events      
Averages and records for this station are not official NWS values.
T = Trace of Precipitation, MM = Missing Value Source: NWS Daily Summary

Daily Weather History Graph

Daily Weather History Graph

Search for Another Location

Airport or City:

Trip Planner

Search our weather history database for the weather conditions in past years. The results will help you decide how hot, cold, wet, or windy it might be!

Date:

Astronomy

Mar. 30, 2014 Rise Set
Actual Time 7:14 AM CDT 7:56 PM CDT
Civil Twilight 6:43 AM CDT 8:27 PM CDT
Nautical Twilight 6:07 AM CDT 9:03 PM CDT
Astronomical Twilight 5:30 AM CDT 9:40 PM CDT
Moon 7:00 AM CDT (3/30) 8:12 PM CDT (3/30)
Length of Visible Light 13h 43m
Length of Day
12h 42m
Waning Crescent, 0% of the Moon is Illuminated
Mar 30
Waning Crescent
Mar 30
New
Apr 7
First Quarter
Apr 15
Full
Apr 22
Last Quarter

Hourly Weather History & Observations

Time (CDT) Temp. Windchill Dew Point Humidity Pressure Visibility Wind Dir Wind Speed Gust Speed Precip Events Conditions
12:15 AM 32.0 °F 25.6 °F 32.0 °F 100% 29.76 in 10.0 mi SE 6.9 mph - 0.00 in   Clear
12:35 AM 32.0 °F 26.4 °F 32.0 °F 100% 29.75 in 10.0 mi SE 5.8 mph - 0.00 in   Clear
12:55 AM 32.0 °F 25.6 °F 32.0 °F 100% 29.75 in 10.0 mi SE 6.9 mph - 0.00 in   Clear
1:15 AM 32.0 °F 26.4 °F 32.0 °F 100% 29.74 in 10.0 mi SE 5.8 mph - 0.00 in   Clear
1:35 AM 32.0 °F 25.6 °F 30.2 °F 93% 29.74 in 10.0 mi ESE 6.9 mph - 0.00 in   Clear
1:55 AM 32.0 °F 25.6 °F 32.0 °F 100% 29.73 in 10.0 mi ESE 6.9 mph - 0.00 in   Clear
2:15 AM 32.0 °F 26.4 °F 32.0 °F 100% 29.73 in 10.0 mi ESE 5.8 mph - 0.00 in   Clear
2:35 AM 30.2 °F - 30.2 °F 100% 29.73 in 10.0 mi Calm Calm - 0.00 in   Clear
2:55 AM 30.2 °F 21.9 °F 30.2 °F 100% 29.74 in 10.0 mi NW 9.2 mph - 0.00 in   Clear
3:15 AM 32.0 °F - 30.2 °F 93% 29.75 in 10.0 mi Calm Calm - 0.00 in   Clear
3:35 AM 30.2 °F - 30.2 °F 100% 29.74 in 10.0 mi Calm Calm - 0.00 in   Clear
3:55 AM 30.2 °F 26.7 °F 30.2 °F 100% 29.76 in 10.0 mi North 3.5 mph - 0.00 in   Clear
4:15 AM 28.4 °F 24.6 °F 28.4 °F 100% 29.76 in 10.0 mi NW 3.5 mph - 0.00 in   Clear
4:35 AM 30.2 °F - 30.2 °F 100% 29.74 in 10.0 mi Calm Calm - 0.00 in   Clear
4:55 AM 28.4 °F - 28.4 °F 100% 29.74 in 10.0 mi Calm Calm - 0.00 in   Clear
5:15 AM 28.4 °F 24.6 °F 28.4 °F 100% 29.74 in 10.0 mi SSW 3.5 mph - 0.00 in   Clear
5:35 AM 28.4 °F 23.3 °F 28.4 °F 100% 29.74 in 10.0 mi SW 4.6 mph - 0.00 in   Clear
5:55 AM 28.4 °F 21.2 °F 28.4 °F 100% 29.74 in 10.0 mi SSW 6.9 mph - 0.00 in   Clear
6:15 AM 28.4 °F 21.2 °F 28.4 °F 100% 29.73 in 10.0 mi SSW 6.9 mph - 0.00 in   Clear
6:35 AM 28.4 °F 22.2 °F 28.4 °F 100% 29.74 in 10.0 mi SW 5.8 mph - 0.00 in   Clear
6:55 AM 28.4 °F 20.4 °F 28.4 °F 100% 29.77 in 10.0 mi WSW 8.1 mph - 0.00 in   Clear
7:15 AM 30.2 °F 22.6 °F 30.2 °F 100% 29.77 in 10.0 mi SW 8.1 mph - 0.00 in   Partly Cloudy
7:35 AM 32.0 °F 25.6 °F 32.0 °F 100% 29.77 in 10.0 mi WSW 6.9 mph - 0.00 in   Clear
7:55 AM 33.8 °F 27.7 °F 33.8 °F 100% 29.78 in 10.0 mi WSW 6.9 mph - 0.00 in   Clear
8:15 AM 33.8 °F 26.4 °F 33.8 °F 100% 29.78 in 10.0 mi West 9.2 mph - 0.00 in   Clear
8:35 AM 35.6 °F 29.2 °F 33.8 °F 93% 29.79 in 10.0 mi West 8.1 mph - 0.00 in   Clear
8:55 AM 37.4 °F 30.8 °F 35.6 °F 93% 29.79 in 10.0 mi West 9.2 mph - 0.00 in   Partly Cloudy
9:15 AM 41.0 °F 35.8 °F 35.6 °F 81% 29.79 in 10.0 mi West 8.1 mph - 0.00 in   Scattered Clouds
9:35 AM 42.8 °F 38.0 °F 35.6 °F 76% 29.78 in 10.0 mi WNW 8.1 mph - 0.00 in   Scattered Clouds
9:55 AM 46.4 °F 41.9 °F 37.4 °F 71% 29.79 in 10.0 mi WNW 9.2 mph - 0.00 in   Partly Cloudy
10:15 AM 50.0 °F - 37.4 °F 62% 29.79 in 10.0 mi NNW 11.5 mph - 0.00 in   Partly Cloudy
10:35 AM 50.0 °F - 37.4 °F 62% 29.80 in 10.0 mi North 8.1 mph - 0.00 in   Partly Cloudy
10:55 AM 51.8 °F - 37.4 °F 58% 29.81 in 10.0 mi North 13.8 mph - 0.00 in   Clear
11:15 AM 51.8 °F - 37.4 °F 58% 29.82 in 10.0 mi North 12.7 mph - 0.00 in   Scattered Clouds
11:35 AM 51.8 °F - 35.6 °F 54% 29.82 in 10.0 mi North 11.5 mph - 0.00 in   Mostly Cloudy
11:55 AM 51.8 °F - 35.6 °F 54% 29.83 in 10.0 mi NNE 10.4 mph - 0.00 in   Mostly Cloudy
12:15 PM 51.8 °F - 37.4 °F 58% 29.83 in 10.0 mi North 13.8 mph - 0.00 in   Scattered Clouds
12:35 PM 53.6 °F - 37.4 °F 54% 29.82 in 10.0 mi NNE 11.5 mph - 0.00 in   Partly Cloudy
12:55 PM 53.6 °F - 37.4 °F 54% 29.81 in 10.0 mi NE 12.7 mph - 0.00 in   Partly Cloudy
1:15 PM 53.6 °F - 37.4 °F 54% 29.81 in 10.0 mi NE 15.0 mph - 0.00 in   Partly Cloudy
1:35 PM 55.4 °F - 35.6 °F 47% 29.81 in 10.0 mi NE 13.8 mph - 0.00 in   Clear
1:55 PM 55.4 °F - 35.6 °F 47% 29.81 in 10.0 mi NE 17.3 mph - 0.00 in   Clear
2:15 PM 55.4 °F - 35.6 °F 47% 29.80 in 10.0 mi NE 16.1 mph - 0.00 in   Clear
2:35 PM 57.2 °F - 35.6 °F 44% 29.79 in 10.0 mi NE 18.4 mph 23.0 mph 0.00 in   Clear
2:55 PM 57.2 °F - 35.6 °F 44% 29.79 in 10.0 mi NE 16.1 mph 23.0 mph 0.00 in   Clear
3:15 PM 57.2 °F - 35.6 °F 44% 29.79 in 10.0 mi NE 17.3 mph - 0.00 in   Clear
3:35 PM 57.2 °F - 35.6 °F 44% 29.79 in 10.0 mi NE 19.6 mph - 0.00 in   Clear
3:55 PM 55.4 °F - 35.6 °F 47% 29.79 in 10.0 mi NE 16.1 mph - 0.00 in   Clear
4:15 PM 55.4 °F - 35.6 °F 47% 29.79 in 10.0 mi NE 16.1 mph 21.9 mph 0.00 in   Clear
4:35 PM 53.6 °F - 35.6 °F 51% 29.79 in 10.0 mi NNE 17.3 mph - 0.00 in   Clear
4:55 PM 53.6 °F - 35.6 °F 51% 29.79 in 10.0 mi NE 16.1 mph - 0.00 in   Clear
5:15 PM 51.8 °F - 33.8 °F 50% 29.79 in 10.0 mi NNE 19.6 mph - 0.00 in   Clear
5:35 PM 51.8 °F - 33.8 °F 50% 29.80 in 10.0 mi NNE 17.3 mph - 0.00 in   Clear
5:55 PM 50.0 °F - 33.8 °F 54% 29.81 in 10.0 mi NNE 20.7 mph - 0.00 in   Clear
6:15 PM 48.2 °F - 33.8 °F 58% 29.80 in 10.0 mi NNE 20.7 mph 25.3 mph 0.00 in   Clear
6:35 PM 46.4 °F 38.3 °F 33.8 °F 62% 29.79 in 10.0 mi NNE 23.0 mph 27.6 mph 0.00 in   Scattered Clouds
6:55 PM 44.6 °F 36.4 °F 32.0 °F 61% 29.80 in 10.0 mi NNE 20.7 mph 28.8 mph 0.00 in   Scattered Clouds
7:15 PM 44.6 °F 36.9 °F 32.0 °F 61% 29.81 in 10.0 mi North 18.4 mph 24.2 mph 0.00 in   Partly Cloudy
7:35 PM 42.8 °F 34.0 °F 32.0 °F 66% 29.80 in 10.0 mi NNE 20.7 mph 25.3 mph 0.00 in   Partly Cloudy
7:55 PM 42.8 °F 33.5 °F 33.8 °F 70% 29.80 in 10.0 mi NNE 23.0 mph 28.8 mph 0.00 in   Partly Cloudy
8:15 PM 41.0 °F 30.9 °F 33.8 °F 76% 29.79 in 10.0 mi NNE 24.2 mph 32.2 mph 0.00 in   Clear
8:35 PM 39.2 °F 30.2 °F 33.8 °F 81% 29.80 in 10.0 mi NNE 17.3 mph 28.8 mph 0.00 in   Clear
8:55 PM 39.2 °F 30.2 °F 33.8 °F 81% 29.82 in 10.0 mi NNE 17.3 mph - 0.00 in   Clear
9:15 PM 37.4 °F 28.2 °F 33.8 °F 87% 29.83 in 10.0 mi NNE 16.1 mph - 0.00 in   Clear
9:35 PM 37.4 °F 27.8 °F 32.0 °F 81% 29.82 in 10.0 mi NNE 17.3 mph - 0.00 in   Clear
9:55 PM 37.4 °F 25.9 °F 32.0 °F 81% 29.80 in 10.0 mi NNE 25.3 mph 28.8 mph 0.00 in   Clear
10:15 PM 35.6 °F 24.5 °F 32.0 °F 87% 29.80 in 10.0 mi NNE 20.7 mph 27.6 mph 0.00 in   Clear
10:35 PM 35.6 °F 24.0 °F 32.0 °F 87% 29.79 in 10.0 mi NNE 23.0 mph 27.6 mph 0.00 in   Clear
10:55 PM 35.6 °F 24.8 °F 32.0 °F 87% 29.80 in 10.0 mi NNE 19.6 mph 25.3 mph 0.00 in   Clear
11:15 PM 33.8 °F 21.9 °F 32.0 °F 93% 29.79 in 10.0 mi NNE 21.9 mph 27.6 mph 0.00 in   Clear
11:35 PM 33.8 °F 22.2 °F 32.0 °F 93% 29.79 in 10.0 mi NNE 20.7 mph 26.5 mph 0.00 in   Clear
11:55 PM 33.8 °F 21.9 °F 32.0 °F 93% 29.79 in 10.0 mi NNE 21.9 mph - 0.00 in   Clear